Weather History for Camdenton, MO

Change the Weather History Date:

Saturday, January 12, 2013

  Actual Average (KAIZ) Record (KAIZ)
Temperature  
Mean Temperature 44 °F -  
Max Temperature 59 °F 38 °F 68 °F (2000)
Min Temperature 28 °F 21 °F -2 °F (1997)
Degree Days  
Heating Degree Days 22    
Moisture  
Dew Point 33 °F    
Average Humidity 74    
Maximum Humidity 100    
Minimum Humidity 43    
Precipitation  
Precipitation 0.31 in - - ()
Sea Level Pressure  
Sea Level Pressure 29.92 in    
Wind  
Wind Speed 9 mph (NW)    
Max Wind Speed 14 mph    
Max Gust Speed 21 mph    
Visibility 8 miles    
Events Rain , Snow    
Averages and records for this station are not official NWS values.
T = Trace of Precipitation, MM = Missing Value Source: NWS Daily Summary

Daily Weather History Graph

Daily Weather History Graph

Search for Another Location

Airport:

Trip Planner

Search our weather history database for the weather conditions in past years. The results will help you decide how hot, cold, wet, or windy it might be!

Date:

Astronomy

Jan. 12, 2013 Rise Set
Actual Time 7:26 AM CST 5:12 PM CST
Civil Twilight 6:57 AM CST 5:41 PM CST
Nautical Twilight 6:24 AM CST 6:13 PM CST
Astronomical Twilight 5:53 AM CST 6:45 PM CST
Moon 7:47 AM CST (1/12) 6:39 PM CST (1/12)
Length of Visible Light 10h 44m
Length of Day
9h 46m
New Moon, 1% of the Moon is Illuminated
Jan 12
New Moon
Jan 18
First Quarter
Jan 26
Full
Feb 3
Last Quarter
Feb 10
New

Hourly Weather History & Observations

Time (CST) Temp. Windchill Dew Point Humidity Pressure Visibility Wind Dir Wind Speed Gust Speed Precip Events Conditions
12:15 AM 59.0 °F - 42.8 °F 55% 29.80 in 10.0 mi South 10.4 mph 17.3 mph N/A   Clear
12:35 AM 59.0 °F - 42.8 °F 55% 29.80 in 10.0 mi South 12.7 mph 20.7 mph N/A   Clear
12:55 AM 59.0 °F - 44.6 °F 59% 29.80 in 10.0 mi South 12.7 mph 16.1 mph N/A   Clear
1:15 AM 59.0 °F - 44.6 °F 59% 29.81 in 10.0 mi South 11.5 mph 19.6 mph N/A   Clear
1:35 AM 59.0 °F - 44.6 °F 59% 29.82 in 10.0 mi South 12.7 mph 20.7 mph N/A   Clear
1:55 AM 59.0 °F - 44.6 °F 59% 29.82 in 10.0 mi SSW 9.2 mph - N/A   Clear
2:15 AM 59.0 °F - 44.6 °F 59% 29.83 in 10.0 mi South 8.1 mph - N/A   Scattered Clouds
2:35 AM 57.2 °F - 44.6 °F 63% 29.84 in 10.0 mi SSW 5.8 mph - N/A   Mostly Cloudy
2:55 AM 57.2 °F - 44.6 °F 63% 29.85 in 10.0 mi SSW 5.8 mph - N/A   Scattered Clouds
3:15 AM 57.2 °F - 44.6 °F 63% 29.85 in 10.0 mi SW 9.2 mph - N/A   Clear
3:35 AM 57.2 °F - 44.6 °F 63% 29.85 in 10.0 mi SW 10.4 mph 17.3 mph N/A   Scattered Clouds
3:55 AM 57.2 °F - 44.6 °F 63% 29.85 in 10.0 mi SW 9.2 mph - N/A   Mostly Cloudy
4:15 AM 55.4 °F - 44.6 °F 67% 29.84 in 10.0 mi SW 8.1 mph - N/A   Overcast
4:35 AM 55.4 °F - 44.6 °F 67% 29.86 in 10.0 mi SW 5.8 mph - N/A   Overcast
4:55 AM 55.4 °F - 44.6 °F 67% 29.87 in 10.0 mi WSW 6.9 mph - N/A   Overcast
5:15 AM 55.4 °F - 44.6 °F 67% 29.89 in 10.0 mi West 9.2 mph - N/A   Overcast
5:35 AM 55.4 °F - 37.4 °F 51% 29.89 in 10.0 mi West 9.2 mph 18.4 mph N/A   Overcast
5:55 AM 53.6 °F - 35.6 °F 51% 29.90 in 10.0 mi West 6.9 mph - N/A   Overcast
6:15 AM 51.8 °F - 33.8 °F 50% 29.89 in 10.0 mi WNW 10.4 mph - N/A   Mostly Cloudy
6:35 AM 50.0 °F - 32.0 °F 50% 29.91 in 10.0 mi WNW 8.1 mph - N/A   Scattered Clouds
6:55 AM 50.0 °F - 28.4 °F 43% 29.90 in 10.0 mi WNW 8.1 mph - N/A   Scattered Clouds
7:15 AM 50.0 °F - 28.4 °F 43% 29.93 in 10.0 mi West 10.4 mph - N/A   Mostly Cloudy
7:35 AM 50.0 °F - 28.4 °F 43% 29.93 in 10.0 mi WNW 9.2 mph - N/A   Overcast
7:55 AM 46.4 °F 42.4 °F 30.2 °F 53% 29.94 in 10.0 mi NNW 8.1 mph - N/A   Overcast
8:15 AM 44.6 °F 39.7 °F 32.0 °F 61% 29.95 in 10.0 mi NNW 9.2 mph 18.4 mph N/A   Overcast
8:35 AM 41.0 °F 34.3 °F 32.0 °F 70% 29.97 in 10.0 mi NW 11.5 mph - N/A   Scattered Clouds
8:55 AM 41.0 °F 33.9 °F 32.0 °F 70% 29.99 in 10.0 mi NNW 12.7 mph - N/A   Clear
9:15 AM 41.0 °F 33.5 °F 32.0 °F 70% 29.98 in 10.0 mi NW 13.8 mph - N/A   Scattered Clouds
9:35 AM 41.0 °F 34.3 °F 32.0 °F 70% 29.99 in 10.0 mi NNW 11.5 mph - N/A   Scattered Clouds
9:55 AM 39.2 °F 32.5 °F 32.0 °F 75% 30.00 in 10.0 mi NW 10.4 mph - N/A   Mostly Cloudy
10:15 AM 39.2 °F 32.5 °F 30.2 °F 70% 30.02 in 10.0 mi NNW 10.4 mph - N/A   Overcast
10:35 AM 37.4 °F 30.3 °F 30.2 °F 75% 30.01 in 10.0 mi North 10.4 mph - N/A   Overcast
10:55 AM 37.4 °F 29.3 °F 26.6 °F 65% 30.01 in 10.0 mi NNW 12.7 mph - N/A   Overcast
11:15 AM 37.4 °F 29.3 °F 28.4 °F 70% 29.99 in 10.0 mi NNW 12.7 mph - N/A   Overcast
11:35 AM 37.4 °F 30.3 °F 28.4 °F 70% 29.97 in 10.0 mi North 10.4 mph 16.1 mph N/A   Overcast
11:55 AM 37.4 °F 30.3 °F 26.6 °F 65% 29.96 in 10.0 mi NNW 10.4 mph - N/A   Overcast
12:15 PM 37.4 °F 33.8 °F 26.6 °F 65% 29.96 in 10.0 mi North 4.6 mph 18.4 mph N/A   Overcast
12:35 PM 37.4 °F 28.9 °F 24.8 °F 60% 29.97 in 10.0 mi North 13.8 mph 17.3 mph N/A   Overcast
12:55 PM 37.4 °F 30.8 °F 23.0 °F 56% 29.98 in 10.0 mi North 9.2 mph 17.3 mph N/A   Overcast
1:15 PM 35.6 °F 29.2 °F 23.0 °F 60% 29.97 in 10.0 mi North 8.1 mph - N/A   Overcast
1:35 PM 35.6 °F 29.2 °F 21.2 °F 56% 29.95 in 10.0 mi NNW 8.1 mph - N/A   Overcast
1:55 PM 35.6 °F 27.5 °F 23.0 °F 60% 29.94 in 10.0 mi NNW 11.5 mph - N/A   Drizzle
2:15 PM 35.6 °F 28.6 °F 23.0 °F 60% 29.95 in 10.0 mi NNW 9.2 mph 17.3 mph N/A Rain Light Rain
2:35 PM 33.8 °F 25.8 °F 23.0 °F 65% 29.94 in 10.0 mi North 10.4 mph - N/A Rain Light Rain
2:55 PM 33.8 °F 27.7 °F 26.6 °F 75% 29.91 in 7.0 mi North 6.9 mph - N/A Rain Light Rain
3:15 PM 32.0 °F 24.2 °F 28.4 °F 87% 29.91 in 7.0 mi North 9.2 mph - N/A Rain Light Rain
3:35 PM 32.0 °F 24.8 °F 28.4 °F 87% 29.91 in 7.0 mi NNW 8.1 mph - N/A Rain Light Rain
3:55 PM 32.0 °F 23.6 °F 30.2 °F 93% 29.92 in 10.0 mi NW 10.4 mph - N/A   Drizzle
4:15 PM 32.0 °F 27.5 °F 30.2 °F 93% 29.95 in 4.0 mi NW 4.6 mph - 0.02 in Rain Light Rain
4:35 PM 32.0 °F 23.6 °F 30.2 °F 93% 29.92 in 4.0 mi NNW 10.4 mph - 0.06 in Rain Rain
4:55 PM 32.0 °F 24.8 °F 30.2 °F 93% 29.94 in 4.0 mi NW 8.1 mph - 0.09 in Rain Rain
5:15 PM 32.0 °F 23.6 °F 30.2 °F 93% 29.94 in 4.0 mi NW 10.4 mph - 0.02 in Snow Light Snow
5:35 PM 32.0 °F 24.2 °F 30.2 °F 93% 29.92 in 3.0 mi NW 9.2 mph - 0.05 in Snow Light Snow
5:55 PM 32.0 °F 24.8 °F 30.2 °F 93% 29.91 in 4.0 mi NW 8.1 mph - 0.08 in Snow Light Snow
6:15 PM 30.2 °F 23.4 °F 30.2 °F 100% 29.92 in 4.0 mi NW 6.9 mph - 0.01 in Snow Light Snow
6:35 PM 30.2 °F 23.4 °F 28.4 °F 93% 29.91 in 10.0 mi NNW 6.9 mph - 0.01 in   Overcast
7:15 PM 30.2 °F 23.4 °F 30.2 °F 100% 29.94 in 3.0 mi NW 6.9 mph - 0.02 in Snow Light Snow
7:35 PM 30.2 °F 23.4 °F 30.2 °F 100% 29.95 in 4.0 mi NW 6.9 mph - 0.04 in Snow Light Snow
7:55 PM 30.2 °F 25.4 °F 30.2 °F 100% 29.94 in 4.0 mi NNW 4.6 mph - 0.05 in Snow Light Snow
8:15 PM 30.2 °F 25.4 °F 30.2 °F 100% 29.94 in 2.0 mi NNW 4.6 mph - 0.03 in Snow Light Snow
8:35 PM 30.2 °F - 30.2 °F 100% 29.97 in 2.0 mi Calm Calm - 0.06 in Snow Light Snow
8:55 PM 30.2 °F 26.7 °F 30.2 °F 100% 29.97 in 3.0 mi NNW 3.5 mph - 0.08 in Snow Light Snow
9:15 PM 30.2 °F 24.3 °F 30.2 °F 100% 29.96 in 4.0 mi NNW 5.8 mph - N/A Snow Light Snow
9:35 PM 30.2 °F 23.4 °F 30.2 °F 100% 29.97 in 4.0 mi NW 6.9 mph - N/A Snow Light Snow
9:55 PM 30.2 °F 26.7 °F 30.2 °F 100% 29.97 in 7.0 mi NNW 3.5 mph - N/A   Overcast
10:15 PM 28.4 °F 24.6 °F 28.4 °F 100% 29.93 in 7.0 mi NNW 3.5 mph - N/A Snow Light Snow
10:35 PM 28.4 °F 22.2 °F 28.4 °F 100% 29.96 in 7.0 mi NW 5.8 mph - N/A   Overcast
10:55 PM 28.4 °F 22.2 °F 28.4 °F 100% 29.96 in 10.0 mi NNW 5.8 mph - N/A   Overcast
11:15 PM 28.4 °F 21.2 °F 28.4 °F 100% 29.98 in 10.0 mi NNW 6.9 mph - N/A   Overcast
11:35 PM 28.4 °F 24.6 °F 28.4 °F 100% 30.00 in 10.0 mi WNW 3.5 mph - N/A   Overcast
11:55 PM 28.4 °F 24.6 °F 28.4 °F 100% 29.99 in 10.0 mi NW 3.5 mph - N/A   Overcast